Wetterdaten von Donnerstag, 20.01.2022 17:20 bis Freitag, 21.01.2022 17:10
Datum/Zeit Temp. A. Feuchte Luftdruck Regen Solar Sonne Wind Windben Richtung
20.01.2022 17:20 2,2 C 84 % 1.024,8 hpa 1,6 km/h 16,1 km/h N/NW
20.01.2022 17:30 2,2 C 84 % 1.024,7 hpa 1,6 km/h 14,5 km/h N/NW
20.01.2022 17:40 2,2 C 84 % 1.025,0 hpa 3,2 km/h 11,3 km/h W
20.01.2022 17:50 2,2 C 84 % 1.025,1 hpa 1,6 km/h 14,5 km/h W
20.01.2022 18:00 2,1 C 84 % 1.025,0 hpa 1,6 km/h 19,3 km/h N/NW
20.01.2022 18:10 1,9 C 85 % 1.025,2 hpa 3,2 km/h 16,1 km/h W
20.01.2022 18:20 1,8 C 85 % 1.025,3 hpa 1,6 km/h 9,7 km/h W
20.01.2022 18:30 1,8 C 86 % 1.025,5 hpa 1,6 km/h 11,3 km/h N/NW
20.01.2022 18:40 1,8 C 86 % 1.025,7 hpa 1,6 km/h 17,7 km/h W
20.01.2022 18:50 1,8 C 86 % 1.025,9 hpa 3,2 km/h 17,7 km/h W
20.01.2022 19:00 1,9 C 86 % 1.025,8 hpa 3,2 km/h 22,5 km/h N/NW
20.01.2022 19:10 1,9 C 86 % 1.026,0 hpa 3,2 km/h 17,7 km/h W
20.01.2022 19:20 1,9 C 86 % 1.026,1 hpa 1,6 km/h 9,7 km/h W
20.01.2022 19:30 1,8 C 86 % 1.026,0 hpa 1,6 km/h 19,3 km/h N/NW
20.01.2022 19:40 1,8 C 86 % 1.026,2 hpa 1,6 km/h 11,3 km/h N/NW
20.01.2022 19:50 1,7 C 86 % 1.026,4 hpa 1,6 km/h 19,3 km/h W
20.01.2022 20:00 1,6 C 86 % 1.026,3 hpa 3,2 km/h 14,5 km/h W
20.01.2022 20:10 1,6 C 86 % 1.026,5 hpa 1,6 km/h 14,5 km/h N/NW
20.01.2022 20:20 1,6 C 86 % 1.026,7 hpa 3,2 km/h 17,7 km/h N/NW
20.01.2022 20:30 1,4 C 86 % 1.026,8 hpa 1,6 km/h 11,3 km/h N/NW
20.01.2022 20:40 1,3 C 86 % 1.026,6 hpa 1,6 km/h 11,3 km/h N/NW
20.01.2022 20:50 1,3 C 87 % 1.026,9 hpa 1,6 km/h 14,5 km/h W
20.01.2022 21:00 1,3 C 87 % 1.026,9 hpa 6,4 km/h N
20.01.2022 21:10 1,3 C 87 % 1.027,1 hpa 1,6 km/h 9,7 km/h W
20.01.2022 21:20 1,2 C 87 % 1.027,2 hpa 1,6 km/h 9,7 km/h W
20.01.2022 21:30 1,3 C 87 % 1.027,2 hpa 1,6 km/h 12,9 km/h W
20.01.2022 21:40 1,3 C 87 % 1.027,4 hpa 1,6 km/h 11,3 km/h W
20.01.2022 21:50 1,3 C 87 % 1.027,4 hpa 1,6 km/h 9,7 km/h W
20.01.2022 22:00 1,3 C 87 % 1.027,7 hpa 1,6 km/h 9,7 km/h W
20.01.2022 22:10 1,3 C 87 % 1.027,7 hpa 1,6 km/h 11,3 km/h N/NW
20.01.2022 22:20 1,2 C 87 % 1.027,8 hpa 1,6 km/h 14,5 km/h W
20.01.2022 22:30 1,2 C 88 % 1.027,7 hpa 3,2 km/h 12,9 km/h W
20.01.2022 22:40 1,1 C 88 % 1.028,1 hpa 3,2 km/h 11,3 km/h W
20.01.2022 22:50 1,1 C 88 % 1.028,2 hpa 1,6 km/h 9,7 km/h N/NW
20.01.2022 23:00 1,0 C 89 % 1.028,2 hpa 1,6 km/h 9,7 km/h W
20.01.2022 23:10 1,0 C 88 % 1.028,3 hpa 1,6 km/h 14,5 km/h W
20.01.2022 23:20 0,9 C 89 % 1.028,4 hpa 3,2 km/h 12,9 km/h W
20.01.2022 23:30 1,0 C 89 % 1.028,4 hpa 3,2 km/h 14,5 km/h N/NW
20.01.2022 23:40 1,0 C 89 % 1.028,4 hpa 3,2 km/h 17,7 km/h W
20.01.2022 23:50 1,0 C 89 % 1.028,7 hpa 3,2 km/h 19,3 km/h N/NW
21.01.2022 00:00 0,9 C 89 % 1.028,8 hpa 1,6 km/h 17,7 km/h N/NW
21.01.2022 00:10 0,8 C 89 % 1.028,9 hpa 3,2 km/h 14,5 km/h W
21.01.2022 00:20 0,8 C 89 % 1.029,1 hpa 1,6 km/h 9,7 km/h N/NW
21.01.2022 00:30 0,8 C 90 % 1.029,0 hpa 3,2 km/h 14,5 km/h W
21.01.2022 00:40 0,8 C 90 % 1.029,0 hpa 1,6 km/h 9,7 km/h W
21.01.2022 00:50 0,8 C 90 % 1.029,2 hpa 4,8 km/h 14,5 km/h W
21.01.2022 01:00 0,8 C 90 % 1.029,3 hpa 4,8 km/h 17,7 km/h W
21.01.2022 01:10 0,8 C 90 % 1.029,4 hpa 3,2 km/h 11,3 km/h N/NW
21.01.2022 01:20 0,8 C 90 % 1.029,4 hpa 3,2 km/h 12,9 km/h N/NW
21.01.2022 01:30 0,7 C 90 % 1.029,3 hpa 1,6 km/h 17,7 km/h N/NW
21.01.2022 01:40 0,7 C 90 % 1.029,3 hpa 1,6 km/h 16,1 km/h W
21.01.2022 01:50 0,7 C 90 % 1.029,3 hpa 1,6 km/h 11,3 km/h N/NW
21.01.2022 02:00 0,7 C 90 % 1.029,6 hpa 1,6 km/h 8,0 km/h N/NW
21.01.2022 02:10 0,7 C 90 % 1.029,7 hpa 1,6 km/h 11,3 km/h W
21.01.2022 02:20 0,7 C 90 % 1.029,9 hpa 1,6 km/h 11,3 km/h N/NW
21.01.2022 02:30 0,7 C 90 % 1.029,9 hpa 1,6 km/h 9,7 km/h N/NW
21.01.2022 02:40 0,6 C 90 % 1.029,8 hpa 3,2 km/h 11,3 km/h N/NW
21.01.2022 02:50 0,6 C 90 % 1.029,7 hpa 1,6 km/h 14,5 km/h N/NW
21.01.2022 03:00 0,6 C 90 % 1.029,6 hpa 1,6 km/h 9,7 km/h W
21.01.2022 03:10 0,5 C 90 % 1.029,5 hpa 1,6 km/h 11,3 km/h W
21.01.2022 03:20 0,4 C 90 % 1.029,5 hpa 1,6 km/h 9,7 km/h N/NW
21.01.2022 03:30 0,4 C 91 % 1.029,4 hpa 1,6 km/h 8,0 km/h N/NW
21.01.2022 03:40 0,4 C 91 % 1.029,6 hpa 1,6 km/h 11,3 km/h W
21.01.2022 03:50 0,4 C 91 % 1.029,4 hpa 1,6 km/h 9,7 km/h W
21.01.2022 04:00 0,5 C 91 % 1.029,7 hpa 6,4 km/h N
21.01.2022 04:10 0,6 C 91 % 1.029,8 hpa 1,6 km/h 8,0 km/h N/NW
21.01.2022 04:20 0,7 C 91 % 1.030,0 hpa 1,6 km/h 8,0 km/h N/NW
21.01.2022 04:30 0,7 C 91 % 1.030,0 hpa 3,2 km/h 9,7 km/h W
21.01.2022 04:40 0,8 C 91 % 1.030,0 hpa 3,2 km/h 11,3 km/h W
21.01.2022 04:50 0,8 C 91 % 1.030,1 hpa 1,6 km/h 11,3 km/h N/NW
21.01.2022 05:00 0,8 C 91 % 1.030,1 hpa 6,4 km/h N
21.01.2022 05:10 0,8 C 91 % 1.030,2 hpa 9,7 km/h N
21.01.2022 05:20 0,8 C 91 % 1.030,1 hpa 1,6 km/h 12,9 km/h W
21.01.2022 05:30 0,8 C 91 % 1.030,1 hpa 1,6 km/h 11,3 km/h N/NW
21.01.2022 05:40 0,8 C 91 % 1.030,1 hpa 1,6 km/h 11,3 km/h N/NW
21.01.2022 05:50 0,9 C 91 % 1.030,1 hpa 1,6 km/h 14,5 km/h W
21.01.2022 06:00 0,9 C 91 % 1.030,1 hpa 1,6 km/h 9,7 km/h N/NW
21.01.2022 06:10 0,9 C 91 % 1.030,2 hpa 1,6 km/h 8,0 km/h N/NW
21.01.2022 06:20 0,9 C 91 % 1.030,2 hpa 3,2 km/h 11,3 km/h W
21.01.2022 06:30 0,9 C 91 % 1.030,1 hpa 1,6 km/h 9,7 km/h W
21.01.2022 06:40 0,9 C 91 % 1.030,1 hpa 3,2 km/h 16,1 km/h W
21.01.2022 06:50 0,9 C 91 % 1.030,1 hpa 3,2 km/h 12,9 km/h W
21.01.2022 07:00 1,0 C 91 % 1.030,2 hpa 3,2 km/h 16,1 km/h N/NW
21.01.2022 07:10 1,1 C 91 % 1.030,4 hpa 3,2 km/h 14,5 km/h W
21.01.2022 07:20 1,1 C 91 % 1.030,5 hpa 1,6 km/h 14,5 km/h N/NW
21.01.2022 07:30 1,1 C 91 % 1.030,6 hpa 3,2 km/h 14,5 km/h W
21.01.2022 07:40 1,2 C 91 % 1.030,6 hpa 1,6 km/h 14,5 km/h W
21.01.2022 07:50 1,2 C 91 % 1.030,6 hpa 1,6 km/h 9,7 km/h W
21.01.2022 08:00 1,2 C 91 % 1.030,5 hpa 3,2 km/h 9,7 km/h W
21.01.2022 08:10 1,3 C 91 % 1.030,6 hpa 1,6 km/h 14,5 km/h W
21.01.2022 08:20 1,3 C 91 % 1.030,9 hpa 1,6 km/h 8,0 km/h W
21.01.2022 08:30 1,3 C 91 % 1.030,8 hpa 1 W/m 1,6 km/h 9,7 km/h W
21.01.2022 08:40 1,3 C 91 % 1.030,8 hpa 11 W/m 1,6 km/h 12,9 km/h W
21.01.2022 08:50 1,3 C 92 % 1.030,9 hpa 17 W/m 3,2 km/h 16,1 km/h N/NW
21.01.2022 09:00 1,3 C 92 % 1.030,9 hpa 18 W/m 1,6 km/h 11,3 km/h W
21.01.2022 09:10 1,4 C 92 % 1.031,0 hpa 17 W/m 4,8 km/h 16,1 km/h W
21.01.2022 09:20 1,4 C 92 % 1.031,2 hpa 18 W/m 1,6 km/h 9,7 km/h W
21.01.2022 09:30 1,4 C 92 % 1.031,1 hpa 14 W/m 3,2 km/h 16,1 km/h W
21.01.2022 09:40 1,4 C 92 % 1.031,1 hpa 11 W/m 6,4 km/h N
21.01.2022 09:50 1,4 C 92 % 1.031,1 hpa 12 W/m 1,6 km/h 8,0 km/h W
21.01.2022 10:00 1,5 C 92 % 1.031,0 hpa 17 W/m 1,6 km/h 9,7 km/h W
21.01.2022 10:10 1,6 C 92 % 1.031,0 hpa 44 W/m 3,2 km/h 9,7 km/h W
21.01.2022 10:20 1,7 C 92 % 1.031,0 hpa 55 W/m 9,7 km/h N
21.01.2022 10:30 1,7 C 92 % 1.031,3 hpa 38 W/m 3,2 km/h 11,3 km/h W
21.01.2022 10:40 1,8 C 92 % 1.031,3 hpa 56 W/m 3,2 km/h 14,5 km/h W
21.01.2022 10:50 2,0 C 93 % 1.031,3 hpa 50 W/m 3,2 km/h 14,5 km/h W
21.01.2022 11:00 2,2 C 92 % 1.031,3 hpa 72 W/m 6,4 km/h 17,7 km/h W
21.01.2022 11:10 2,2 C 92 % 1.031,3 hpa 51 W/m 3,2 km/h 16,1 km/h N/NW
21.01.2022 11:20 2,3 C 93 % 1.031,3 hpa 113 W/m 3,2 km/h 14,5 km/h W
21.01.2022 11:30 2,5 C 93 % 1.031,3 hpa 107 W/m 4,8 km/h 12,9 km/h W
21.01.2022 11:40 2,7 C 93 % 1.031,4 hpa 83 W/m 3,2 km/h 19,3 km/h N/NW
21.01.2022 11:50 2,8 C 92 % 1.031,4 hpa 141 W/m 10 min 4,8 km/h 20,9 km/h N/NW
21.01.2022 12:00 2,9 C 92 % 1.031,2 hpa 131 W/m 10 min 3,2 km/h 14,5 km/h N/NW
21.01.2022 12:10 3,1 C 92 % 1.031,2 hpa 177 W/m 10 min 4,8 km/h 17,7 km/h N/NW
21.01.2022 12:20 3,3 C 92 % 1.031,1 hpa 132 W/m 10 min 4,8 km/h 14,5 km/h N/NW
21.01.2022 12:30 3,4 C 92 % 1.031,2 hpa 107 W/m 3,2 km/h 16,1 km/h W
21.01.2022 12:40 3,4 C 91 % 1.031,1 hpa 70 W/m 3,2 km/h 14,5 km/h N/NW
21.01.2022 12:50 3,5 C 91 % 1.031,1 hpa 66 W/m 3,2 km/h 16,1 km/h N/NW
21.01.2022 13:00 3,6 C 91 % 1.031,0 hpa 71 W/m 1,6 km/h 11,3 km/h N/NW
21.01.2022 13:10 3,7 C 90 % 1.031,0 hpa 78 W/m 4,8 km/h 14,5 km/h W
21.01.2022 13:20 3,8 C 90 % 1.030,9 hpa 54 W/m 4,8 km/h 16,1 km/h W
21.01.2022 13:30 3,8 C 90 % 1.030,5 hpa 80 W/m 4,8 km/h 17,7 km/h N/NW
21.01.2022 13:40 3,9 C 89 % 1.030,4 hpa 88 W/m 4,8 km/h 11,3 km/h W
21.01.2022 13:50 4,0 C 89 % 1.030,4 hpa 94 W/m 4,8 km/h 12,9 km/h W
21.01.2022 14:00 4,1 C 89 % 1.030,3 hpa 67 W/m 3,2 km/h 11,3 km/h W
21.01.2022 14:10 4,1 C 89 % 1.030,3 hpa 43 W/m 3,2 km/h 14,5 km/h W
21.01.2022 14:20 4,1 C 89 % 1.030,3 hpa 31 W/m 4,8 km/h 14,5 km/h W
21.01.2022 14:30 4,1 C 89 % 1.030,3 hpa 23 W/m 3,2 km/h 14,5 km/h W
21.01.2022 14:40 4,1 C 89 % 1.030,3 hpa 26 W/m 4,8 km/h 17,7 km/h W
21.01.2022 14:50 4,2 C 89 % 1.030,2 hpa 41 W/m 4,8 km/h 16,1 km/h W
21.01.2022 15:00 4,2 C 89 % 1.030,1 hpa 25 W/m 4,8 km/h 16,1 km/h W
21.01.2022 15:10 4,3 C 89 % 1.030,1 hpa 19 W/m 4,8 km/h 14,5 km/h W
21.01.2022 15:20 4,3 C 88 % 1.030,1 hpa 17 W/m 3,2 km/h 11,3 km/h W
21.01.2022 15:30 4,3 C 88 % 1.030,1 hpa 16 W/m 4,8 km/h 17,7 km/h W
21.01.2022 15:40 4,3 C 88 % 1.030,2 hpa 18 W/m 4,8 km/h 19,3 km/h W
21.01.2022 15:50 4,3 C 88 % 1.030,2 hpa 14 W/m 6,4 km/h 20,9 km/h W
21.01.2022 16:00 4,3 C 89 % 1.030,2 hpa 11 W/m 4,8 km/h 17,7 km/h S/SW
21.01.2022 16:10 4,3 C 89 % 1.030,0 hpa 8 W/m 3,2 km/h 11,3 km/h W
21.01.2022 16:20 4,2 C 89 % 1.029,9 hpa 5 W/m 4,8 km/h 16,1 km/h W
21.01.2022 16:30 4,2 C 89 % 1.030,0 hpa 1 W/m 4,8 km/h 22,5 km/h W
21.01.2022 16:40 4,1 C 90 % 1.029,9 hpa 4,8 km/h 14,5 km/h W
21.01.2022 16:50 4,0 C 90 % 1.029,9 hpa 0,254 l 4,8 km/h 14,5 km/h W
21.01.2022 17:00 3,9 C 91 % 1.029,9 hpa 4,8 km/h 14,5 km/h S/SW
21.01.2022 17:10 3,8 C 91 % 1.029,9 hpa 4,8 km/h 14,5 km/h W
Minimum: 0,4 C
03:50
84 %
18:00
1.024,7 hpa
17:30

17:10

17:10

10:20
2,2 km/h
17:20
S/SW
1,4%
Maximum: 4,3 C
16:10
93 %
11:40
1.031,4 hpa
11:50
0,254 l
16:50
177 W/m
12:10
6,4 km/h
15:50
22,5 km/h
16:30
W
61,1%
Durchschnitt/
Summe:
1,8 C 90 % 1.029,3 hpa # 0,3 l 17 W/m 2,7 km/h 13,3 km/h W
263,2